Regional Weather Roundup
Issued by NWS

Home | Current Version | Previous Version | Text Only | Print | Product List | Glossary On
Versions: 1 2 3 4 5 6 7 8 9 10 11 12 13 14 15 16 17 18 19 20 21 22 23 24 25 26 27 28 29 30 31 32 33 34 35 36 37 38 39 40 41 42 43 44 45 46 47 48 49 50
996
ASHW40 PHFO 162212
RWRHI

WEATHER ROUNDUP FOR HAWAII
NATIONAL WEATHER SERVICE HONOLULU HI
1200 PM HST TUE JAN 16 2018

THIS IS AN AUTOMATED REPORT THAT HAS NOT BEEN QUALITY CONTROLLED.

NOTE..."FAIR" INDICATES FEW OR NO CLOUDS BELOW 12,000 FEET WITH NO
SIGNIFICANT WEATHER AND/OR OBSTRUCTIONS TO VISIBILITY.

* - THESE SITES REPORT LIMITED FIELDS
# - BUOY DATA PROVIDED BY PACIFIC ISLANDS OCEAN OBSERVING SYSTEM.

HIZ001>004-162300-
KAUAI-NIIHAU-

CITY           SKY/WX    TMP DP  RH WIND       PRES   REMARKS
LIHUE APT      MOSUNNY   79  64  60 NE12      30.17F
PORT ALLEN*      N/A     81 N/A N/A W14G20      N/A
POIPU*           N/A     79 N/A N/A NE9G17      N/A
PRINCEVILLE*     N/A     75 N/A N/A E7G13       N/A
KOKOLE POINT*  NOT AVBL
MOLOAA DAIRY*    N/A     77  64  65 E3G10       N/A
WAIMEA HTS*    NOT AVBL
PUU OPAE*      NOT AVBL
PUU LUA*       NOT AVBL
MAKAHA RIDGE*  NOT AVBL
$$

HIZ005>011-162300-
OAHU-

CITY           SKY/WX    TMP DP  RH WIND       PRES   REMARKS
HONOLULU       MOSUNNY   83  60  45 NE15      30.12F
KALAELOA       SUNNY     82  61  48 VRB7      30.13F
KANEOHE MCB    NOT AVBL
WHEELER FIELD  FAIR      76  60  59 N3        30.16F
BELLOWS*       NOT AVBL
KAHUKU*        NOT AVBL
WHEELER*       NOT AVBL
WAIANAE HARBOR NOT AVBL
DILLINGHAM*    NOT AVBL
KAHUKU TRN*      N/A     77  63  61 W9G20       N/A
KAWAILOA*        N/A     72  59  64 E13G24      N/A
KII*             N/A     77  64  65 E14         N/A
MAKUA RANGE*     N/A     81  59  47 SW10G21     N/A
OAHU FOREST NW NOT AVBL
SCHOFIELD BRK*   N/A     75  57  53 MISG        N/A
SCHOFIELD S*   NOT AVBL
WAIANAE VLY*   NOT AVBL
KUAOKALA*      NOT AVBL
HONOULIUULI*   NOT AVBL
MOKUOLOE IS*   NOT AVBL
PALEHUA*       NOT AVBL
WAIAWA PHB*    NOT AVBL
$$

HIZ012>013-162300-
MOLOKAI-

CITY           SKY/WX    TMP DP  RH WIND       PRES   REMARKS
MOLOKAI AIRPT  MOSUNNY   76  32  20 N18       30.14F
KALAUPAPA      NOT AVBL
MAKAPULAPAI*   NOT AVBL
MOLOKAI 1*     NOT AVBL
PUU ALII*      NOT AVBL
$$

HIZ016-162300-
KAHOOLAWE-

CITY           SKY/WX    TMP DP  RH WIND       PRES   REMARKS
KAHOOLAWE*     NOT AVBL
HAKIOAWA*      NOT AVBL
HONOKANAIA*    NOT AVBL
KANELOA*         N/A     75  64  69 NE15G24     N/A
KEALIALALO*    NOT AVBL
LUA MAKIKA*    NOT AVBL
$$

HIZ014>015-162300-
LANAI-

CITY           SKY/WX    TMP DP  RH WIND       PRES   REMARKS
LANAI CITY     FAIR      73  62  68 NE16G24   30.16F
LANAI 1*       NOT AVBL
$$

HIZ017>028-162300-
MAUI-

CITY           SKY/WX    TMP DP  RH WIND       PRES   REMARKS
KAHULUI        MOSUNNY   78  66  66 NE22      30.13F
KAPALUA-W MAUI MOSUNNY   75  64  69 NE16G30   30.13
HANA AIRPORT   PTSUNNY   77  77 100 VRB7      30.17F
HANA*            N/A     77 N/A N/A NE7         N/A
HALEAKALA SUMM   N/A     50  14  23 NE16        N/A
MAALAEA BAY*   NOT AVBL
HALEAKALA*     NOT AVBL
KAUPO GAP*     NOT AVBL
KULA 1*          N/A    N/A N/A N/A W3          N/A
$$

HIZ023>026-162300-
BIG ISLAND OF HAWAII COAST AND LOWER SLOPES-

CITY           SKY/WX    TMP DP  RH WIND       PRES   REMARKS
KAILUA KONA    MOSUNNY   80  61  52 W7        30.06F
HILO           CLOUDY    80  66  62 NE8       30.13F
HONOKAA*         N/A     75 N/A N/A VRB1        N/A
KAWAIHAE MWT*    N/A     79 N/A N/A W6          N/A
KAWAIHAE*      NOT AVBL
SOUTH POINT*     N/A     75 N/A N/A VRB16G25    N/A
UPOLU AIRPORT* NOT AVBL
KAMUELA*       PTCLDY    72  57  60 NE20      30.17F
HAKALAU*         N/A    N/A N/A N/A SE3G12      N/A
KALOKO-HONOKO* NOT AVBL
PALI 2*          N/A     77  57  50 SW13G23     N/A
KEALAKOMO*       N/A     84  59  42 N23G33      N/A
KAUPULEHU*     NOT AVBL
KAPAPALA*        N/A     77  60  54 S7          N/A
LOWER KAHUKU*  NOT AVBL
PUHE CS*       NOT AVBL
PUHO CS*       NOT AVBL
PTA KEAMUKU*     N/A     70  57  64 NE22G30     N/A
WAIKOLOA*      NOT AVBL
$$

HIZ027>028-162300-
BIG ISLAND OF HAWAII INTERIOR AND SUMMMITS-

CITY           SKY/WX    TMP DP  RH WIND       PRES   REMARKS
BRADSHAW FIELD SUNNY     74  19  12 S14G20    30.38F
MK VISITOR CEN   N/A     59  19  21 E17         N/A
MAUNA KEA*       N/A     43   0  16 NE10        N/A
MAUNA LOA*     NOT AVBL
MAUNA LOA 1*   NOT AVBL
PTA KIPUKA*      N/A     73  41  31 SE9         N/A
PTA RANGE 17*    N/A     50   0  12 NW15G23     N/A
PTA WEST*        N/A    N/A N/A N/A W9G16       N/A
NENE CABIN*    NOT AVBL
AHUMOA*        NOT AVBL
PTA PORTABLE*  NOT AVBL
PUU MALI*        N/A     66  14  13 E21G33      N/A
$$

HIC003-162300-
NORTHWEST ISLANDS-

CITY           SKY/WX    TMP DP  RH WIND       PRES   REMARKS
MIDWAY ISLAND  PTSUNNY   70  55  60 E16       30.31R
MIDWAY NOS*    NOT AVBL
FRENCH FRIGATE NOT AVBL
$$

PHZ110>124-180-162300-
BUOY REPORTS

STATION/POSITION TIME  TEMP    WIND        PRES    WAVE   SWELL
                       AIR SEA DIR/SP/G            HT/PER HT/DIR
                 (UTC) (F)     (DEG/KT/KT) (MB)    (FT/S) (FT/D)
BUOY 51001       2150   74 76   60/ 12/ 16 1021.6F   6/11   5
BUOY 51101       2150   73 75  320/  4/  6 1022.8    7/13   7/320
BUOY 51100       NOT AVBL
BUOY 51002       2150   77 78   50/ 17/ 21 1018.2F   9/14   7/340
BUOY 51003       2150   76 77   50/ 14/ 16 1019.1    9/12   8/340
BUOY 51004       2150   76 77   60/ 16/ 19 1018.0F  10/15   8/330
WAIMEA BAY#      2132      75                N/A     8/14   7/320
MOKAPU POINT#    2134      76                N/A     6/14   3/360
LANAI#           NOT AVBL
BARBERS PT 2#    NOT AVBL
PAUWELA#         2130      76                N/A     8/13   7/330
HILO#            2157      76                N/A     8/13   7/340
KANEOHE BAY#     NOT AVBL
KANEOHE BAY 2#   NOT AVBL
HANALEI#         2152      76                N/A     8/13   7/340
KAHULUI HARBOR   2148   74 76   20/ 15/ 17 1020.6F
HONOLULU HARBOR  2148   78 76   50/  7/ 15 1019.6F
PEARL HARBOR#    2130      76                N/A     2/ 8
KILO NALU        NOT AVBL
HILO HARBOR      NOT AVBL
MOKUOLOE         2136   75 76   60/  9/ 13 1021.0F
NAWILIWILI       2148   75      40/  9/ 12 1021.5F
WHOTS BUOY       NOT AVBL
BUOY 51028       NOT AVBL
$$

......................KEY........................................
  SKY/WX - SKY CONDITIONS/PRESENT WEATHER
  TMP    - TEMPERATURE IN FAHRENHEIT
  DWPT   - DEWPOINT IN FAHRENHEIT
  RH     - RELATIVE HUMIDITY IN PERCENT
  WIND   - DIRECTION AND SPEED /MPH FOR ISLANDS...KTS FOR BUOYS/
  PRES   - MEAN SEA LEVEL PRESSURE IN INCHES OF HG
  VSB    - VISIBILITY IN MILES
  HX     - HEAT INDEX
  WCI    - WIND CHILL INDEX
  VRB    - VARIABLE WIND DIRECTION
  N/A    - NOT AVAILABLE




USA.gov is the U.S. government's official web portal to all federal, state and local government web resources and services.